Terminal Aerodrome Forecast
Issued by NWS Charleston, WV

Current Version | Previous Version | Graphics & Text | Print | Product List | Glossary On
Versions: 1 2 3 4 5 6 7 8 9 10 11 12 13 14 15 16 17 18 19 20 21 22 23 24 25 26 27 28
556
FTUS41 KRLX 242339
TAFHTS
TAF
KHTS 242339Z 2500/2524 VRB03KT 6SM -SHRA BKN006 OVC015
     FM250600 VRB03KT 2SM -SHRA BR OVC004
     FM251300 32004KT 5SM BR OVC006
     FM251600 33005KT P6SM OVC009
     FM251800 32005KT P6SM OVC015=

USA.gov is the U.S. government's official web portal to all federal, state and local government web resources and services.